User: anonymous   Login
Location: Bittelbronn
(48.4454°N, 8.5870°E)
Time: 16:09:43
(UTC+00:00)
Language:

RESURS DK-1 - Orbit

View from above orbital plane
View from above orbital plane
View from above satellite
View from above satellite

Ground track
Ground track

The orbit data is extracted from the following two-line orbital elements,

1 29228U 06021A   24206.84373070  .00004374  00000-0  29322-3 0  9997
2 29228  69.9368 325.1491 0006774 296.8351  63.2119 15.07599710997998
Epoch (UTC): 24 July 2024 20:14:58
Eccentricity: 0.0006774
inclination: 69.9368°
perigee height: 539 km
apogee height: 548 km
right ascension of ascending node: 325.1491°
argument of perigee: 296.8351°
revolutions per day: 15.07599710
mean anomaly at epoch: 63.2119°
orbit number at epoch: 99799

The dashed part of the orbit path shows where the satellite is in the earth's shadow,  

DLR